MLP9112 HLLM-LIPQ

Flight info

Callsign MLP9112
Flight time 2h 8m
Altitude 36000
Route SARKI2C SARKI DCT ADEXI DCT PNZ DCT NEKPI DCT GOTMO DCT CHI
Aircraft A21N/M-SDE2E3FGHIRWXY/LB1

Departure

Time 2026-04-16 12:06
Airport Mitiga International Airport (HLLM)

Arrival

Time 2026-04-16 14:15
Airport Trieste Airport (LIPQ)
Time Latitude Longitude Altitude Speed Heading
2026-04-16 11:44 32.90402 13.27819 44 ft 0 kts 99°
2026-04-16 11:59 32.90402 13.27821 44 ft 1 kts 100°
2026-04-16 11:59 32.90389 13.27840 42 ft 5 kts 153°
2026-04-16 11:59 32.90341 13.27852 44 ft 9 kts 170°
2026-04-16 11:59 32.90265 13.27873 44 ft 13 kts 161°
2026-04-16 12:00 32.90171 13.27927 42 ft 17 kts 153°
2026-04-16 12:00 32.90055 13.27996 42 ft 20 kts 154°
2026-04-16 12:00 32.89920 13.28069 42 ft 23 kts 156°
2026-04-16 12:00 32.89774 13.28150 43 ft 24 kts 155°
2026-04-16 12:01 32.89616 13.28240 43 ft 25 kts 154°
2026-04-16 12:01 32.89457 13.28333 42 ft 27 kts 135°
2026-04-16 12:01 32.89386 13.28537 43 ft 28 kts 106°
2026-04-16 12:02 32.89276 13.29006 42 ft 31 kts 105°
2026-04-16 12:02 32.89273 13.29021 42 ft 31 kts 105°
2026-04-16 12:02 32.89222 13.29242 42 ft 24 kts 105°
2026-04-16 12:02 32.89182 13.29415 42 ft 22 kts 104°
2026-04-16 12:03 32.89142 13.29597 41 ft 23 kts 105°
2026-04-16 12:03 32.89096 13.29788 41 ft 25 kts 106°
2026-04-16 12:03 32.89050 13.29992 42 ft 26 kts 104°
2026-04-16 12:03 32.89002 13.30206 41 ft 27 kts 105°
2026-04-16 12:04 32.88954 13.30411 41 ft 20 kts 105°
2026-04-16 12:04 32.88943 13.30455 41 ft 5 kts 105°
2026-04-16 12:04 32.88923 13.30501 39 ft 8 kts 146°
2026-04-16 12:04 32.88865 13.30490 41 ft 10 kts 217°
2026-04-16 12:05 32.88815 13.30416 42 ft 13 kts 248°
2026-04-16 12:05 32.88817 13.30333 43 ft 0 kts 283°
2026-04-16 12:05 32.88858 13.30148 43 ft 57 kts 285°
2026-04-16 12:06 32.89024 13.29434 40 ft 119 kts 285°
2026-04-16 12:06 32.89281 13.28301 58 ft 163 kts 286°
2026-04-16 12:06 32.89580 13.26973 598 ft 161 kts 289°
2026-04-16 12:06 32.89907 13.25724 1250 ft 160 kts 289°
2026-04-16 12:07 32.90252 13.24455 1799 ft 165 kts 302°
2026-04-16 12:07 32.91201 13.23639 2114 ft 184 kts 347°
2026-04-16 12:07 32.92527 13.23907 2611 ft 208 kts 22°
2026-04-16 12:07 32.93851 13.24805 3123 ft 232 kts 24°
2026-04-16 12:08 32.95470 13.25300 3682 ft 248 kts
2026-04-16 12:08 32.97224 13.25381 4518 ft 255 kts
2026-04-16 12:08 32.99010 13.25411 5424 ft 260 kts 360°
2026-04-16 12:08 33.00831 13.25435 6339 ft 263 kts 360°
2026-04-16 12:09 33.02676 13.25460 7230 ft 267 kts 360°
2026-04-16 12:09 33.04547 13.25483 8107 ft 271 kts 360°
2026-04-16 12:09 33.06452 13.25509 8982 ft 276 kts 360°
2026-04-16 12:09 33.08394 13.25529 9854 ft 281 kts 360°
2026-04-16 12:10 33.10357 13.25548 10479 ft 295 kts
2026-04-16 12:10 33.12490 13.25573 10876 ft 316 kts
2026-04-16 12:10 33.14731 13.25601 11549 ft 325 kts
2026-04-16 12:10 33.17008 13.25632 12362 ft 330 kts
2026-04-16 12:11 33.19316 13.25659 13184 ft 333 kts
2026-04-16 12:11 33.21651 13.25686 13964 ft 338 kts
2026-04-16 12:11 33.24022 13.25713 14717 ft 342 kts
2026-04-16 12:11 33.26417 13.25743 15453 ft 346 kts
2026-04-16 12:12 33.28847 13.25775 16149 ft 351 kts
2026-04-16 12:12 33.31306 13.25807 16838 ft 355 kts
2026-04-16 12:12 33.33794 13.25829 17514 ft 359 kts 359°
2026-04-16 12:12 33.36309 13.25734 18174 ft 363 kts 358°
2026-04-16 12:13 33.38818 13.25608 18806 ft 367 kts 358°
2026-04-16 12:13 33.41383 13.25477 19439 ft 371 kts 358°
2026-04-16 12:13 33.43979 13.25345 20053 ft 375 kts 358°
2026-04-16 12:13 33.46593 13.25213 20646 ft 378 kts 358°
2026-04-16 12:14 33.49230 13.25081 21219 ft 381 kts 358°
2026-04-16 12:14 33.51897 13.24948 21774 ft 385 kts 358°
2026-04-16 12:14 33.54585 13.24815 22321 ft 388 kts 358°
2026-04-16 12:14 33.57293 13.24679 22849 ft 392 kts 358°
2026-04-16 12:15 33.60034 13.24543 23367 ft 395 kts 358°
2026-04-16 12:15 33.62791 13.24403 23885 ft 398 kts 359°
2026-04-16 12:15 33.65572 13.24264 24385 ft 402 kts 359°
2026-04-16 12:15 33.68381 13.24135 24878 ft 405 kts 360°
2026-04-16 12:16 33.71219 13.24126 25345 ft 407 kts
2026-04-16 12:16 33.74038 13.24155 25813 ft 410 kts
2026-04-16 12:16 33.76897 13.24186 26256 ft 413 kts
2026-04-16 12:16 33.79774 13.24214 26682 ft 416 kts
2026-04-16 12:17 33.82680 13.24237 27099 ft 418 kts
2026-04-16 12:17 33.85585 13.24262 27513 ft 421 kts
2026-04-16 12:17 33.88547 13.24289 27890 ft 423 kts
2026-04-16 12:17 33.91477 13.24312 28261 ft 426 kts
2026-04-16 12:18 33.94438 13.24337 28631 ft 428 kts
2026-04-16 12:18 33.97422 13.24364 28994 ft 430 kts
2026-04-16 12:18 34.00451 13.24391 29342 ft 432 kts
2026-04-16 12:18 34.03433 13.24415 29743 ft 433 kts
2026-04-16 12:19 34.06448 13.24437 30103 ft 434 kts
2026-04-16 12:19 34.09498 13.24460 30331 ft 439 kts
2026-04-16 12:19 34.12573 13.24483 30538 ft 443 kts
2026-04-16 12:19 34.15686 13.24508 30829 ft 446 kts
2026-04-16 12:20 34.18749 13.24534 31187 ft 446 kts
2026-04-16 12:20 34.21866 13.24559 31628 ft 444 kts
2026-04-16 12:20 34.24935 13.24584 32062 ft 442 kts
2026-04-16 12:20 34.28028 13.24608 32482 ft 440 kts
2026-04-16 12:21 34.31070 13.24632 32897 ft 438 kts
2026-04-16 12:21 34.34105 13.24591 33279 ft 436 kts 357°
2026-04-16 12:21 34.37150 13.24390 33630 ft 435 kts 356°
2026-04-16 12:21 34.40143 13.24178 34001 ft 433 kts 356°
2026-04-16 12:22 34.43144 13.23963 34337 ft 431 kts 356°
2026-04-16 12:22 34.46127 13.23752 34616 ft 431 kts 356°
2026-04-16 12:22 34.49133 13.23538 34879 ft 431 kts 356°
2026-04-16 12:22 34.52129 13.23323 35033 ft 433 kts 356°
2026-04-16 12:23 34.58151 13.22896 35037 ft 432 kts 356°
2026-04-16 12:23 34.64158 13.22470 35022 ft 432 kts 356°
2026-04-16 12:24 34.70140 13.22043 35020 ft 431 kts 356°
2026-04-16 12:24 34.76132 13.21614 35018 ft 431 kts 356°
2026-04-16 12:25 34.82136 13.21182 35023 ft 432 kts 356°
2026-04-16 12:25 34.88099 13.20756 35018 ft 431 kts 356°
2026-04-16 12:26 34.94088 13.20328 35022 ft 431 kts 356°
2026-04-16 12:26 35.00103 13.19894 35017 ft 431 kts 356°
2026-04-16 12:27 35.06110 13.19463 35019 ft 432 kts 356°
2026-04-16 12:27 35.12076 13.19029 35026 ft 431 kts 356°
2026-04-16 12:28 35.18086 13.18599 35023 ft 432 kts 356°
2026-04-16 12:28 35.24086 13.18165 35023 ft 432 kts 356°
2026-04-16 12:29 35.30050 13.17735 35018 ft 431 kts 357°
2026-04-16 12:29 35.36087 13.17294 35019 ft 431 kts 357°
2026-04-16 12:30 35.42062 13.16859 35019 ft 431 kts 357°
2026-04-16 12:30 35.48052 13.16427 35019 ft 432 kts 357°
2026-04-16 12:31 35.54038 13.15987 35019 ft 432 kts 357°
2026-04-16 12:31 35.60070 13.15550 35018 ft 432 kts 357°
2026-04-16 12:32 35.66043 13.15114 35018 ft 432 kts 357°
2026-04-16 12:32 35.72070 13.14679 35020 ft 432 kts 357°
2026-04-16 12:33 35.78098 13.14235 35023 ft 432 kts 357°
2026-04-16 12:33 35.84058 13.13798 35020 ft 431 kts 357°
2026-04-16 12:34 35.90056 13.13360 35017 ft 432 kts 357°
2026-04-16 12:34 35.96046 13.12921 35018 ft 432 kts 357°
2026-04-16 12:35 36.02058 13.12478 35022 ft 432 kts 357°
2026-04-16 12:35 36.08049 13.12035 35019 ft 434 kts 358°
2026-04-16 12:36 36.14079 13.11590 35021 ft 434 kts 358°
2026-04-16 12:36 36.19106 13.11218 35024 ft 434 kts 358°
2026-04-16 12:37 36.26144 13.10695 35019 ft 434 kts 358°
2026-04-16 12:37 36.32181 13.10249 35023 ft 434 kts 358°
2026-04-16 12:38 36.38217 13.09801 35029 ft 434 kts 358°
2026-04-16 12:38 36.44209 13.09355 35031 ft 434 kts 358°
2026-04-16 12:39 36.50250 13.08904 35030 ft 434 kts 358°
2026-04-16 12:39 36.55256 13.08531 35031 ft 434 kts 358°
2026-04-16 12:40 36.62295 13.08002 35030 ft 434 kts 358°
2026-04-16 12:40 36.67298 13.07628 35033 ft 434 kts 358°
2026-04-16 12:41 36.73354 13.07174 35038 ft 434 kts 358°
2026-04-16 12:41 36.79367 13.06723 35041 ft 434 kts 358°
2026-04-16 12:42 36.85409 13.06268 35040 ft 434 kts 358°
2026-04-16 12:42 36.91463 13.05810 35042 ft 435 kts 358°
2026-04-16 12:43 36.97479 13.05356 35049 ft 435 kts 358°
2026-04-16 12:43 37.03507 13.04901 35050 ft 435 kts 358°
2026-04-16 12:44 37.09583 13.04445 35050 ft 435 kts 358°
2026-04-16 12:44 37.15613 13.03987 35051 ft 436 kts 358°
2026-04-16 12:45 37.21658 13.03516 35050 ft 436 kts 358°
2026-04-16 12:45 37.27694 13.03059 35051 ft 436 kts 358°
2026-04-16 12:46 37.33747 13.02606 35051 ft 436 kts 359°
2026-04-16 12:46 37.39801 13.02440 35050 ft 436 kts
2026-04-16 12:47 37.45885 13.02329 35050 ft 436 kts
2026-04-16 12:47 37.51939 13.02220 35049 ft 436 kts
2026-04-16 12:48 37.58017 13.02108 35050 ft 436 kts
2026-04-16 12:48 37.64079 13.01995 35050 ft 436 kts
2026-04-16 12:49 37.70142 13.01883 35050 ft 437 kts
2026-04-16 12:49 37.76248 13.01773 35051 ft 436 kts
2026-04-16 12:50 37.82314 13.01659 35050 ft 437 kts
2026-04-16 12:50 37.88389 13.01551 35049 ft 436 kts
2026-04-16 12:51 37.94456 13.01439 35047 ft 436 kts
2026-04-16 12:51 38.00496 13.01326 35051 ft 436 kts
2026-04-16 12:52 38.06572 13.01217 35050 ft 436 kts
2026-04-16 12:52 38.12647 13.01102 35050 ft 436 kts
2026-04-16 12:53 38.18702 13.00988 35051 ft 436 kts
2026-04-16 12:53 38.24774 13.00879 35050 ft 436 kts
2026-04-16 12:54 38.30847 13.00764 35050 ft 436 kts
2026-04-16 12:54 38.36905 13.00652 35051 ft 436 kts
2026-04-16 12:55 38.42970 13.00541 35050 ft 436 kts
2026-04-16 12:55 38.49049 13.00423 35051 ft 436 kts
2026-04-16 12:56 38.55090 13.00309 35051 ft 436 kts
2026-04-16 12:56 38.61158 13.00198 35049 ft 435 kts
2026-04-16 12:57 38.67224 13.00086 35053 ft 435 kts
2026-04-16 12:57 38.73263 12.99970 35050 ft 435 kts
2026-04-16 12:58 38.79317 12.99859 35051 ft 435 kts
2026-04-16 12:58 38.85380 12.99745 35050 ft 435 kts
2026-04-16 12:59 38.91429 12.99628 35050 ft 435 kts
2026-04-16 13:00 39.00529 12.99451 35059 ft 434 kts
2026-04-16 13:00 39.06556 12.99335 35058 ft 434 kts
2026-04-16 13:01 39.12587 12.99222 35061 ft 434 kts
2026-04-16 13:01 39.18631 12.99110 35061 ft 434 kts
2026-04-16 13:02 39.24660 12.98998 35061 ft 434 kts
2026-04-16 13:02 39.30724 12.98883 35062 ft 434 kts
2026-04-16 13:03 39.36736 12.98768 35059 ft 434 kts
2026-04-16 13:03 39.42795 12.98651 35061 ft 434 kts
2026-04-16 13:04 39.48834 12.98531 35061 ft 433 kts
2026-04-16 13:04 39.54820 12.98416 35062 ft 433 kts
2026-04-16 13:05 39.60884 12.98302 35061 ft 433 kts
2026-04-16 13:05 39.66871 12.98188 35061 ft 433 kts
2026-04-16 13:06 39.72910 12.98073 35061 ft 433 kts
2026-04-16 13:06 39.78934 12.97955 35061 ft 433 kts
2026-04-16 13:07 39.84937 12.97838 35059 ft 433 kts
2026-04-16 13:07 39.90956 12.97724 35060 ft 433 kts
2026-04-16 13:08 39.96985 12.97609 35060 ft 432 kts
2026-04-16 13:08 40.03005 12.97484 35062 ft 432 kts
2026-04-16 13:09 40.08973 12.97362 35059 ft 430 kts
2026-04-16 13:09 40.14944 12.97248 35060 ft 430 kts
2026-04-16 13:10 40.20927 12.97127 35068 ft 430 kts
2026-04-16 13:10 40.26918 12.97009 35072 ft 430 kts
2026-04-16 13:11 40.32894 12.96894 35072 ft 430 kts
2026-04-16 13:11 40.38904 12.96775 35072 ft 430 kts
2026-04-16 13:12 40.44854 12.96656 35052 ft 430 kts
2026-04-16 13:12 40.50836 12.96541 35051 ft 430 kts
2026-04-16 13:13 40.56812 12.96423 35050 ft 430 kts
2026-04-16 13:13 40.62772 12.96300 35067 ft 429 kts
2026-04-16 13:14 40.68762 12.96186 35080 ft 429 kts
2026-04-16 13:14 40.74719 12.96066 35082 ft 429 kts
2026-04-16 13:15 40.80690 12.95947 35074 ft 429 kts
2026-04-16 13:15 40.86650 12.95825 35084 ft 429 kts
2026-04-16 13:16 40.92605 12.96147 35081 ft 427 kts 11°
2026-04-16 13:16 40.98420 12.97842 35082 ft 427 kts 14°
2026-04-16 13:17 41.04206 12.99619 35084 ft 427 kts 13°
2026-04-16 13:17 41.09972 13.01333 35082 ft 427 kts 13°
2026-04-16 13:18 41.15796 13.03067 35082 ft 427 kts 13°
2026-04-16 13:18 41.21569 13.04795 35082 ft 427 kts 13°
2026-04-16 13:19 41.27338 13.06527 35082 ft 427 kts 13°
2026-04-16 13:19 41.33196 13.08095 35077 ft 428 kts
2026-04-16 13:20 41.39126 13.07872 35076 ft 429 kts 357°
2026-04-16 13:20 41.45074 13.07285 35075 ft 429 kts 357°
2026-04-16 13:21 41.51053 13.06723 35079 ft 429 kts 357°
2026-04-16 13:21 41.56998 13.06175 35079 ft 429 kts 357°
2026-04-16 13:22 41.62963 13.05622 35080 ft 429 kts 357°
2026-04-16 13:22 41.68912 13.05072 35084 ft 429 kts 357°
2026-04-16 13:23 41.74856 13.04521 35081 ft 429 kts 357°
2026-04-16 13:23 41.80822 13.03965 35081 ft 429 kts 357°
2026-04-16 13:24 41.86776 13.03414 35079 ft 429 kts 357°
2026-04-16 13:24 41.92730 13.02861 35072 ft 429 kts 357°
2026-04-16 13:25 41.98641 13.02297 35070 ft 429 kts 357°
2026-04-16 13:25 42.04590 13.01747 35072 ft 427 kts 357°
2026-04-16 13:26 42.10509 13.01185 35064 ft 426 kts 357°
2026-04-16 13:26 42.16425 13.00632 35070 ft 426 kts 357°
2026-04-16 13:27 42.21342 13.00170 35071 ft 426 kts 357°
2026-04-16 13:27 42.27251 12.99609 35076 ft 426 kts 357°
2026-04-16 13:28 42.33163 12.99053 35080 ft 425 kts 358°
2026-04-16 13:28 42.39077 12.98496 35082 ft 425 kts 357°
2026-04-16 13:29 42.44978 12.97939 35078 ft 425 kts 357°
2026-04-16 13:29 42.50881 12.97365 35080 ft 425 kts 357°
2026-04-16 13:30 42.56754 12.96794 35081 ft 426 kts 357°
2026-04-16 13:30 42.62661 12.96228 35097 ft 425 kts 358°
2026-04-16 13:31 42.68555 12.95663 35093 ft 425 kts 358°
2026-04-16 13:31 42.74459 12.95101 35093 ft 425 kts 358°
2026-04-16 13:32 42.80357 12.94537 35097 ft 425 kts 358°
2026-04-16 13:32 42.86253 12.93970 35102 ft 425 kts 358°
2026-04-16 13:33 42.92118 12.93407 35101 ft 425 kts 358°
2026-04-16 13:33 42.98025 12.92844 35097 ft 425 kts 358°
2026-04-16 13:34 43.03934 12.92267 35090 ft 425 kts 358°
2026-04-16 13:34 43.09833 12.91697 35097 ft 425 kts 358°
2026-04-16 13:35 43.15729 12.91123 35117 ft 425 kts 358°
2026-04-16 13:35 43.21618 12.90370 35119 ft 427 kts 351°
2026-04-16 13:36 43.27413 12.88514 35129 ft 427 kts 348°
2026-04-16 13:36 43.33168 12.86653 35137 ft 425 kts 349°
2026-04-16 13:37 43.38856 12.84787 35151 ft 421 kts 348°
2026-04-16 13:37 43.44614 12.82863 35164 ft 426 kts 348°
2026-04-16 13:38 43.50385 12.80933 35168 ft 427 kts 348°
2026-04-16 13:38 43.56164 12.79053 35173 ft 427 kts 348°
2026-04-16 13:39 43.61947 12.77151 35170 ft 427 kts 349°
2026-04-16 13:39 43.67728 12.75275 35172 ft 427 kts 349°
2026-04-16 13:40 43.73507 12.73357 35159 ft 427 kts 348°
2026-04-16 13:40 43.79243 12.71444 35155 ft 427 kts 348°
2026-04-16 13:41 43.85057 12.69528 35149 ft 427 kts 348°
2026-04-16 13:41 43.90804 12.67634 35140 ft 427 kts 348°
2026-04-16 13:42 43.96335 12.65784 35137 ft 424 kts 348°
2026-04-16 13:42 44.01992 12.63893 35131 ft 421 kts 348°
2026-04-16 13:43 44.07761 12.61975 35137 ft 428 kts 348°
2026-04-16 13:43 44.13560 12.60028 35139 ft 428 kts 348°
2026-04-16 13:44 44.19348 12.58084 35150 ft 428 kts 348°
2026-04-16 13:44 44.25101 12.56159 35141 ft 425 kts 348°
2026-04-16 13:44 44.27955 12.55196 34710 ft 419 kts 348°
2026-04-16 13:45 44.30776 12.54246 34146 ft 415 kts 348°
2026-04-16 13:45 44.33572 12.53302 33575 ft 413 kts 348°
2026-04-16 13:45 44.36353 12.52361 33029 ft 409 kts 348°
2026-04-16 13:45 44.39111 12.51428 32503 ft 405 kts 348°
2026-04-16 13:46 44.41837 12.50503 31962 ft 402 kts 347°
2026-04-16 13:46 44.44547 12.49583 31438 ft 398 kts 347°
2026-04-16 13:46 44.47224 12.48683 30932 ft 394 kts 347°
2026-04-16 13:46 44.49878 12.47782 30450 ft 389 kts 347°
2026-04-16 13:47 44.52490 12.46898 29985 ft 385 kts 347°
2026-04-16 13:47 44.55094 12.46021 29501 ft 383 kts 347°
2026-04-16 13:47 44.57681 12.45142 29003 ft 383 kts 347°
2026-04-16 13:47 44.60263 12.44263 28508 ft 382 kts 347°
2026-04-16 13:48 44.62808 12.43394 28044 ft 379 kts 347°
2026-04-16 13:48 44.65367 12.42514 27580 ft 377 kts 346°
2026-04-16 13:48 44.67913 12.41638 27085 ft 376 kts 346°
2026-04-16 13:48 44.70454 12.40766 26605 ft 375 kts 346°
2026-04-16 13:49 44.72981 12.39902 26134 ft 373 kts 346°
2026-04-16 13:49 44.75506 12.39042 25661 ft 372 kts 346°
2026-04-16 13:49 44.78011 12.38186 25204 ft 370 kts 346°
2026-04-16 13:49 44.80513 12.37325 24729 ft 369 kts 346°
2026-04-16 13:50 44.83009 12.36473 24244 ft 368 kts 346°
2026-04-16 13:50 44.85498 12.35619 23760 ft 368 kts 346°
2026-04-16 13:50 44.87982 12.34764 23295 ft 367 kts 346°
2026-04-16 13:50 44.90456 12.33911 22825 ft 366 kts 346°
2026-04-16 13:51 44.92928 12.33064 22327 ft 365 kts 346°
2026-04-16 13:51 44.95395 12.32208 21828 ft 365 kts 346°
2026-04-16 13:51 44.97859 12.31350 21351 ft 364 kts 346°
2026-04-16 13:51 45.00275 12.30512 20881 ft 362 kts 346°
2026-04-16 13:52 45.02745 12.29683 20410 ft 360 kts 348°
2026-04-16 13:52 45.05199 12.29535 19950 ft 357 kts
2026-04-16 13:52 45.07534 12.30630 19526 ft 353 kts 29°
2026-04-16 13:52 45.09399 12.32827 19116 ft 349 kts 51°
2026-04-16 13:53 45.10662 12.35730 18732 ft 344 kts 61°
2026-04-16 13:53 45.11768 12.38708 18341 ft 340 kts 61°
2026-04-16 13:53 45.12892 12.41623 17944 ft 335 kts 60°
2026-04-16 13:53 45.14038 12.44482 17567 ft 331 kts 59°
2026-04-16 13:54 45.15186 12.47293 17196 ft 330 kts 59°
2026-04-16 13:54 45.16350 12.50101 16827 ft 331 kts 58°
2026-04-16 13:54 45.17525 12.52904 16442 ft 331 kts 58°
2026-04-16 13:54 45.18705 12.55709 16067 ft 331 kts 58°
2026-04-16 13:55 45.19880 12.58512 15711 ft 330 kts 58°
2026-04-16 13:55 45.21053 12.61311 15367 ft 329 kts 58°
2026-04-16 13:55 45.22222 12.64107 15005 ft 329 kts 59°
2026-04-16 13:55 45.23387 12.66895 14628 ft 329 kts 59°
2026-04-16 13:56 45.24539 12.69656 14251 ft 329 kts 59°
2026-04-16 13:56 45.25706 12.72460 13866 ft 329 kts 59°
2026-04-16 13:56 45.26867 12.75253 13505 ft 328 kts 59°
2026-04-16 13:56 45.28018 12.78024 13153 ft 323 kts 59°
2026-04-16 13:57 45.29150 12.80740 12808 ft 317 kts 58°
2026-04-16 13:57 45.30280 12.83402 12457 ft 311 kts 56°
2026-04-16 13:57 45.31735 12.85615 12079 ft 305 kts 34°
2026-04-16 13:58 45.35697 12.87263 11400 ft 297 kts
2026-04-16 13:58 45.37747 12.87661 11073 ft 297 kts
2026-04-16 13:58 45.39791 12.88077 10742 ft 297 kts
2026-04-16 13:58 45.41832 12.88511 10420 ft 296 kts
2026-04-16 13:59 45.43841 12.88942 10180 ft 288 kts
2026-04-16 13:59 45.45814 12.89371 9888 ft 286 kts
2026-04-16 13:59 45.47782 12.89808 9562 ft 286 kts
2026-04-16 13:59 45.49754 12.90248 9226 ft 287 kts 10°
2026-04-16 14:00 45.51729 12.90687 8888 ft 287 kts 10°
2026-04-16 14:00 45.53697 12.91125 8552 ft 284 kts 10°
2026-04-16 14:00 45.55607 12.91555 8225 ft 280 kts 10°
2026-04-16 14:00 45.57535 12.91983 7906 ft 279 kts 10°
2026-04-16 14:01 45.59465 12.92409 7602 ft 279 kts 10°
2026-04-16 14:01 45.61383 12.92832 7288 ft 279 kts 10°
2026-04-16 14:01 45.63285 12.93257 6962 ft 276 kts 10°
2026-04-16 14:01 45.65173 12.93680 6634 ft 273 kts 11°
2026-04-16 14:02 45.66996 12.94418 6295 ft 272 kts 28°
2026-04-16 14:02 45.68543 12.95937 5974 ft 269 kts 39°
2026-04-16 14:02 45.69987 12.97602 5653 ft 268 kts 40°
2026-04-16 14:02 45.71439 12.99280 5362 ft 267 kts 40°
2026-04-16 14:03 45.72848 13.00900 5053 ft 267 kts 39°
2026-04-16 14:03 45.74277 13.02526 4733 ft 266 kts 39°
2026-04-16 14:03 45.75751 13.04183 4334 ft 264 kts 39°
2026-04-16 14:03 45.77166 13.05776 3952 ft 261 kts 39°
2026-04-16 14:04 45.78587 13.07378 3621 ft 260 kts 39°
2026-04-16 14:04 45.80008 13.09003 3324 ft 262 kts 39°
2026-04-16 14:04 45.81433 13.10646 3023 ft 263 kts 41°
2026-04-16 14:04 45.82563 13.12620 2925 ft 250 kts 64°
2026-04-16 14:05 45.82961 13.14954 2950 ft 235 kts 87°
2026-04-16 14:05 45.82953 13.17227 2960 ft 222 kts 91°
2026-04-16 14:05 45.82913 13.19384 2954 ft 210 kts 91°
2026-04-16 14:05 45.82885 13.21423 2970 ft 200 kts 91°
2026-04-16 14:06 45.82869 13.23408 2956 ft 199 kts 90°
2026-04-16 14:06 45.82856 13.25396 2962 ft 199 kts 91°
2026-04-16 14:06 45.82857 13.27380 2965 ft 199 kts 89°
2026-04-16 14:06 45.82876 13.29364 2976 ft 199 kts 89°
2026-04-16 14:07 45.82892 13.31346 2977 ft 199 kts 89°
2026-04-16 14:07 45.82947 13.33302 2991 ft 198 kts 77°
2026-04-16 14:07 45.83667 13.34942 2993 ft 200 kts 35°
2026-04-16 14:07 45.84984 13.35474 2983 ft 204 kts 354°
2026-04-16 14:08 45.86338 13.34837 2990 ft 205 kts 342°
2026-04-16 14:08 45.87684 13.34169 2981 ft 206 kts 331°
2026-04-16 14:08 45.88699 13.32774 2905 ft 202 kts 299°
2026-04-16 14:08 45.89095 13.30828 2574 ft 208 kts 276°
2026-04-16 14:09 45.89233 13.28753 2275 ft 209 kts 274°
2026-04-16 14:09 45.89315 13.27380 2193 ft 208 kts 274°
2026-04-16 14:09 45.89461 13.24605 2150 ft 208 kts 268°
2026-04-16 14:09 45.89093 13.22634 2195 ft 206 kts 236°
2026-04-16 14:10 45.88076 13.21256 2157 ft 203 kts 205°
2026-04-16 14:10 45.86727 13.20826 2172 ft 192 kts 175°
2026-04-16 14:10 45.85540 13.21354 2208 ft 171 kts 148°
2026-04-16 14:10 45.84698 13.22456 2166 ft 157 kts 126°
2026-04-16 14:11 45.84220 13.23805 2137 ft 152 kts 109°
2026-04-16 14:11 45.83885 13.25234 2193 ft 150 kts 110°
2026-04-16 14:11 45.83519 13.26629 2175 ft 149 kts 111°
2026-04-16 14:11 45.83138 13.28003 2206 ft 149 kts 111°
2026-04-16 14:12 45.82865 13.29435 2145 ft 149 kts 96°
2026-04-16 14:12 45.82857 13.30915 2032 ft 141 kts 90°
2026-04-16 14:12 45.82857 13.32260 1807 ft 134 kts 91°
2026-04-16 14:12 45.82852 13.33585 1635 ft 133 kts 92°
2026-04-16 14:13 45.82846 13.34905 1454 ft 132 kts 92°
2026-04-16 14:13 45.82840 13.36221 1253 ft 132 kts 93°
2026-04-16 14:13 45.82833 13.37529 1071 ft 131 kts 93°
2026-04-16 14:13 45.82827 13.38838 905 ft 131 kts 93°
2026-04-16 14:14 45.82820 13.40150 743 ft 131 kts 93°
2026-04-16 14:14 45.82810 13.41462 546 ft 131 kts 93°
2026-04-16 14:14 45.82805 13.42772 371 ft 132 kts 93°
2026-04-16 14:14 45.82802 13.43646 223 ft 133 kts 94°
2026-04-16 14:15 45.82794 13.45394 58 ft 131 kts 92°
2026-04-16 14:15 45.82789 13.46217 51 ft 102 kts 90°
2026-04-16 14:15 45.82784 13.46822 51 ft 33 kts 91°
2026-04-16 14:15 45.82783 13.47161 54 ft 35 kts 90°
2026-04-16 14:16 45.82782 13.47547 51 ft 12 kts 95°
2026-04-16 14:16 45.82748 13.47665 52 ft 14 kts 135°
2026-04-16 14:16 45.82668 13.47763 52 ft 16 kts 141°
2026-04-16 14:16 45.82606 13.47834 52 ft 17 kts 141°
2026-04-16 14:17 45.82508 13.47952 53 ft 19 kts 140°
2026-04-16 14:17 45.82401 13.48082 53 ft 21 kts 139°
2026-04-16 14:17 45.82311 13.48195 51 ft 8 kts 139°
2026-04-16 14:17 45.82265 13.48263 53 ft 11 kts 115°
2026-04-16 14:18 45.82239 13.48370 53 ft 13 kts 150°
2026-04-16 14:18 45.82192 13.48393 53 ft 6 kts 167°
2026-04-16 14:18 45.82187 13.48395 53 ft 0 kts 167°
2026-04-16 14:18 45.82185 13.48396 53 ft 0 kts 169°